Location: Unspecified
(0.0000°N, 0.0000°E)
Time: 00:28:47
(UTC+01:00)

SJ-6B - Visible Passes

Search period start: 18 December 2014 00:00
Search period end: 28 December 2014 00:00
Orbit: 518 x 594 km, 97.8° (Epoch: 16 December)

Date Brightness Start Highest point End Pass type
(mag) Time Alt. Az. Time Alt. Az. Time Alt. Az.
20 Dec 5.3 06:31:48 10° NE 06:35:28 30° ESE 06:39:06 10° SSE visible
21 Dec 5.4 06:29:34 10° NE 06:33:08 28° ESE 06:36:40 10° SSE visible
22 Dec 5.6 06:27:20 10° NE 06:30:47 26° ESE 06:34:13 10° SSE visible
22 Dec 6.6 20:03:35 10° WSW 20:04:02 10° WSW 20:04:30 10° W visible
23 Dec 5.7 06:25:05 10° NE 06:28:26 24° ESE 06:31:44 10° SSE visible
23 Dec 6.3 20:00:27 10° WSW 20:01:40 11° WSW 20:02:53 10° W visible
24 Dec 5.9 06:22:51 10° NE 06:26:03 22° ESE 06:29:13 10° SSE visible
24 Dec 6.2 19:57:38 10° SW 19:59:17 12° WSW 20:00:55 10° WNW visible
25 Dec 6.0 06:20:37 10° NE 06:23:40 20° ESE 06:26:41 10° SSE visible
25 Dec 6.1 19:54:55 10° SW 19:56:52 14° WSW 19:58:51 10° WNW visible
26 Dec 6.0 06:18:24 10° ENE 06:21:16 19° ESE 06:24:07 10° SE visible
26 Dec 6.0 19:52:14 10° SW 19:54:28 15° WSW 19:56:42 10° WNW visible
27 Dec 6.1 06:16:11 10° ENE 06:18:52 17° ESE 06:21:31 10° SE visible
27 Dec 6.0 19:49:35 10° SW 19:52:02 16° WSW 19:54:30 10° WNW visible
